[Date Prev][Date Next][Thread Prev][Thread Next] - [Date Index][Thread Index][Author Index]
2 Line ISS Keps 8-1
- Subject: [sarex] 2 Line ISS Keps 8-1
- From: "Dave Larsen PhD" <doc@xxxxxxxxxxx>
- Date: Wed, 1 Aug 2001 05:39:03 -0700
ISS
1 25544U 98067A 01213.48255587 .00017557 00000-0 23653-3 0 2856
2 25544 51.6386 219.9259 0011378 324.2625 198.3380 15.57860096154157
----
Via the sarex mailing list at AMSAT.ORG courtesy of AMSAT-NA.
To unsubscribe, send "unsubscribe sarex" to Majordomo@amsat.org
AMSAT Home